#timestamp,LO_Frequency,Hit,StdDev 
1544565615.8,286047000.4,N
1544565635.7,286047000.9,N
1544565655.5,286047000.7,N
1544565675.3,286046998.8,N
1544565695.2,286046999.3,N
1544565715.9,286046998.8,N
1544565735.7,286046998.5,N
1544565755.6,286046999.8,N
1544565775.4,286047000.3,N
1544565795.3,286047000.4,N
1544565815.1,286046999.7,N
1544565816.0,286046999.7,N
1544565835.8,286047000.1,N
1544565855.7,286046998.8,N
1544565875.5,286046998.9,N
1544565895.3,286046998.7,N
1544565915.2,286046998.4,N
1544565935.0,286047000.8,N
1544565935.9,286047000.8,N
1544565955.8,286047000.2,N
1544565975.6,286047000.5,N
1544565995.4,286046999.0,N
1544566015.3,286047000.1,N
1544566035.1,286047000.3,N
1544566055.8,286047001.1,N
1544566075.7,286047001.2,N
1544566095.5,286046998.6,N
1544566115.4,286047000.0,N
1544566135.2,286047000.2,N
1544566155.0,286047001.2,N
1544566155.9,286047001.2,N
1544566175.8,286046998.6,N
1544566195.6,286047000.6,N
1544566215.4,286047000.4,N
1544566235.3,286046999.8,N
1544566255.1,286046999.7,N
1544566275.9,286047002.6,N
1544566295.7,286047001.9,N
1544566315.5,286047001.9,N
1544566335.4,286047001.9,N
1544566355.2,286047001.9,N
1544566375.0,286047000.9,N
1544566376.0,286047000.9,N
1544566395.8,286046999.9,N
1544566415.6,286046999.7,N
1544566435.5,286047000.1,N
1544566455.3,286046998.5,N
1544566475.1,286046996.9,Y
1544566495.9,286046997.5,P
1544566515.7,286046997.6,N
1544566535.6,286046999.5,N
1544566555.4,286046997.4,N
1544566575.2,286046997.2,N
1544566595.1,286046995.6,Y
1544566596.0,286046995.6,P
1544566615.8,286046997.0,N
1544566635.6,286046998.8,N
1544566655.5,286046999.5,N
1544566675.3,286046999.5,N
1544566695.2,286046997.3,N
1544566715.9,286046995.9,Y
1544566735.7,286046998.7,P
1544566755.6,286046998.3,P
1544566775.4,286047000.4,N
1544566795.3,286047000.6,N
1544566815.1,286047000.5,N
1544566816.0,286047000.5,N
1544566835.8,286046998.4,N
1544566855.7,286046996.7,Y
1544566875.5,286046996.6,P
1544566895.3,286046999.3,N
1544566915.2,286046997.0,N
1544566935.0,286046998.9,N
1544566935.9,286046998.9,N
1544566955.8,286047001.2,N
1544566975.6,286046996.6,N
1544566995.4,286046997.5,N
1544567015.3,286046997.0,N
1544567035.1,286046996.9,N
1544567055.8,286046996.6,N
1544567075.7,286046996.7,N
1544567095.5,286046996.7,N
1544567115.4,286046999.3,N
1544567135.2,286046999.1,N
1544567155.0,286046999.0,N
1544567155.9,286046999.0,N
1544567175.8,286046997.0,N
1544567195.6,286046998.5,N
1544567215.5,286046999.9,N
1544567235.3,286046999.9,N
1544567255.1,286047000.5,N
1544567275.9,286047000.3,N
1544567295.7,286047002.3,N
1544567315.5,286047004.0,N
1544567335.4,286047004.2,N
1544567355.2,286047001.8,N
1544567375.1,286047004.1,N
1544567376.0,286047004.1,N
1544567395.8,286047001.0,N
1544567415.6,286046998.5,N
1544567435.5,286046998.9,N
1544567455.3,286046998.7,N
1544567475.1,286047000.5,N
1544567495.9,286047000.5,N
1544567515.7,286047002.4,N
1544567535.6,286047000.9,N
1544567555.4,286047002.2,N
1544567575.2,286047001.8,N
1544567595.1,286046999.7,N
1544567596.0,286046999.7,N
1544567615.8,286047001.2,N
1544567635.6,286046998.3,N
1544567655.5,286046998.6,N
1544567675.3,286046999.5,N
1544567695.2,286046996.7,N
1544567715.9,286046996.6,N
1544567735.7,286046996.5,N
1544567755.6,286047000.0,N
1544567775.4,286047002.4,N
1544567795.2,286047002.7,N
1544567815.1,286047002.6,N
1544567816.0,286047002.6,N
1544567835.8,286047001.2,N
1544567855.7,286046999.0,N
1544567875.5,286047000.9,N
1544567925.4,286047000.0,E
1544567935.3,286047000.5,N
1544567955.1,286047000.0,P
1544567975.9,286047000.3,N
1544567995.7,286046998.5,Y
1544568015.5,286046999.4,P
1544568035.4,286047000.6,N
1544568055.2,286046998.3,P
1544568075.1,286046998.1,N
1544568076.0,286046998.1,N
1544568095.8,286046999.7,N
1544568115.6,286046999.8,N
1544568135.5,286047002.7,N
1544568155.3,286047002.8,N
1544568175.1,286047001.8,N
1544568195.9,286047002.8,N
1544568215.7,286047000.4,N
1544568235.6,286047000.5,N
1544568255.4,286046998.6,N
1544568275.2,286047000.1,N
1544568295.1,286046999.7,N
1544568296.0,286046999.7,N
1544568315.8,286047001.6,N
1544568335.7,286047002.5,N
1544568355.5,286047000.1,N
1544568375.3,286047001.0,N
1544568395.2,286047002.8,N
1544568415.0,286047005.4,Y
1544568415.9,286047005.4,P
1544568435.7,286047002.0,N
1544568455.6,286047002.1,N
1544568475.4,286047000.3,N
1544568495.3,286047001.7,N
1544568515.1,286047004.0,N
1544568516.0,286047004.0,N
1544568535.8,286047004.3,N
1544568555.7,286047001.6,N
1544568575.5,286047001.6,N
1544568595.4,286047002.2,N
1544568615.2,286047002.8,N
1544568635.0,286047000.0,N
1544568635.9,286047000.0,N
1544568655.8,286047000.6,N
1544568675.6,286046998.5,N
1544568695.4,286047000.9,N
1544568715.3,286047000.2,N
1544568735.1,286047000.2,N
1544568755.9,286047002.4,N
1544568775.7,286047000.3,N
1544568795.5,286047006.0,Y
1544568815.4,286047003.1,P
1544568835.2,286047001.9,N
1544568855.0,286047000.7,N
1544568855.9,286047000.7,N
1544568875.8,286046998.6,N
1544568895.6,286047002.7,N
1544568915.5,286047001.3,N
1544568935.3,286047004.1,Y
1544568955.1,286047000.8,P
1544568975.9,286047000.7,N
1544568995.7,286046999.7,N
1544569015.6,286047001.8,Y
1544569035.4,286047000.2,P
1544569055.2,286047000.5,N
1544569075.1,286046998.2,P
1544569076.0,286046998.2,N
1544569095.8,286046998.6,N
1544569115.6,286046997.7,N
1544569135.5,286046998.0,N
1544569155.3,286046996.8,N
1544569175.2,286046996.9,N
1544569195.9,286046997.0,N
